Selinsgrove, PA

6:25 AM EDT on May 24, 2018 (GMT -0400)
Penn Valley

Weather History for KSEG - April, 2014

Change the Weather History Date:

Monday, April 28, 2014

  Actual Average (KIPT) Record (KIPT)
Temperature  
Mean Temperature 48 °F -  
Max Temperature 63 °F 65 °F 91 °F (1990)
Min Temperature 34 °F 40 °F 27 °F (1934)
Degree Days  
Heating Degree Days 16    
Moisture  
Dew Point 36 °F    
Average Humidity 57    
Maximum Humidity 89    
Minimum Humidity 34    
Precipitation  
Precipitation 0.00 in - - ()
Sea Level Pressure  
Sea Level Pressure 30.08 in    
Wind  
Wind Speed 4 mph (South)    
Max Wind Speed 10 mph    
Max Gust Speed -    
Visibility 10 miles    
Events Rain    
Averages and records for this station are not official NWS values.
T = Trace of Precipitation, MM = Missing Value Source: NWS Daily Summary

Daily Weather History Graph

Daily Weather History Graph

Search for Another Location

Airport or City:

Astronomy

Apr. 28, 2014 Rise Set
Actual Time 6:09 AM EDT 8:00 PM EDT
Civil Twilight 5:40 AM EDT 8:30 PM EDT
Nautical Twilight 5:04 AM EDT 9:06 PM EDT
Astronomical Twilight 4:26 AM EDT 9:45 PM EDT
Moon 5:47 AM EDT (4/28) 7:36 PM EDT (4/28)
Length of Visible Light 14h 49m
Length of Day
13h 50m
Waning Crescent, 0% of the Moon is Illuminated
Apr 28
Waning Crescent
Apr 29
New
May 6
First Quarter
May 14
Full
May 21
Last Quarter

Hourly Weather History & Observations

Time (EDT) Temp. Windchill Dew Point Humidity Pressure Visibility Wind Dir Wind Speed Gust Speed Precip Events Conditions
1:53 AM 37.9 °F 33.5 °F 32.0 °F 79% 30.15 in 10.0 mi NNW 5.8 mph - N/A   Clear
2:53 AM 39.0 °F - 32.0 °F 76% 30.13 in 10.0 mi Calm Calm - N/A   Clear
4:53 AM 35.1 °F - 30.9 °F 85% 30.15 in 10.0 mi Calm Calm - N/A   Clear
6:53 AM 34.0 °F 31.0 °F 30.9 °F 89% 30.16 in 10.0 mi NNW 3.5 mph - N/A   Clear
7:53 AM 42.1 °F - 36.0 °F 79% 30.17 in 10.0 mi Calm Calm - N/A   Clear
8:53 AM 48.0 °F - 35.1 °F 61% 30.17 in 10.0 mi East 4.6 mph - N/A   Clear
9:53 AM 53.1 °F - 33.1 °F 47% 30.14 in 10.0 mi ENE 10.4 mph - N/A   Clear
10:53 AM 54.0 °F - 33.1 °F 45% 30.13 in 10.0 mi Variable 6.9 mph - N/A   Clear
11:53 AM 57.9 °F - 32.0 °F 37% 30.10 in 10.0 mi North 5.8 mph - N/A   Clear
12:53 PM 59.0 °F - 33.1 °F 38% 30.07 in 10.0 mi Calm Calm - N/A   Clear
1:53 PM 60.1 °F - 33.1 °F 36% 30.04 in 10.0 mi Calm Calm - N/A   Clear
2:53 PM 61.0 °F - 33.1 °F 35% 30.03 in 10.0 mi Calm Calm - N/A   Clear
3:53 PM 63.0 °F - 34.0 °F 34% 30.01 in 10.0 mi Variable 3.5 mph - N/A   Clear
5:53 PM 61.0 °F - 35.1 °F 38% 30.00 in 10.0 mi SW 4.6 mph - N/A   Mostly Cloudy
6:53 PM 60.1 °F - 36.0 °F 41% 29.99 in 10.0 mi SSW 4.6 mph - N/A   Partly Cloudy
7:53 PM 59.0 °F - 37.0 °F 44% 30.01 in 10.0 mi South 4.6 mph - N/A   Scattered Clouds
8:53 PM 57.9 °F - 39.0 °F 49% 30.01 in 10.0 mi South 4.6 mph - 0.00 in Rain Light Rain
9:53 PM 55.0 °F - 44.1 °F 67% 30.04 in 10.0 mi South 5.8 mph - 0.00 in Rain Light Rain
10:53 PM 52.0 °F - 46.9 °F 83% 30.05 in 9.0 mi SW 3.5 mph - 0.00 in   Overcast
11:53 PM 52.0 °F - 46.9 °F 83% 30.05 in 8.0 mi South 5.8 mph - 0.00 in Rain Light Rain